Showing default

COSMOS 1894, 18443

Orbit data source: Space-Track

COSMOS 1894, 18443 is a payload satellite owned by PVO (CIS) in GEO that was launched on Wed, 28 Oct 1987 UTC via a PROTON-K/DM-2 launch vehicle from the Tyuratam Missile And Space Complex (TTMTR). Payload-class satellites include a variety of spacecraft equipped with specific instruments for various scientific and technological missions. These include communications satellites like Starlink; space stations such as the ISS; scientific satellites like the Hubble; Earth observation satellites from companies like Planet Labs, Umbra, and HawkEye 360; GPS; miniature CubeSats for education and research; and military/defense satellites.

Not visible in the next 10 days
Identifier
18443, 1987-091A
Orbit
GEO
Country
Flag of CISCIS
Related business
Manufacturer
NPOL/KOMET
Mission
Defense Early Warn
Bus & Motor
OKO, Unknown motor
Mass
~1,250 kg wet, ~1,150 kg dry
Launch date (UTC)
1987-10-28 (38 years ago)
Launch vehicle
PROTON-K/DM-2
Launch site
Tyuratam Missile And Space Complex (TTMTR)
Object type
Payload
Rocket body
Debris
Shape & HBR
Cyl + 2 Pan, 2.5 m
Radar Cross Section
6.333 m², Large (>1 m²)

Expand to show TLE details & history
Last TLE update: 23 hours ago

TLE from 23 hours ago
0 COSMOS 1894
1 18443U 87091A   25349.76765280 -.00000157  00000-0  00000-0 0  9993
2 18443  11.0166 326.7244 0004455 342.4582  31.5655  1.00275349118984
Epoch: 2025-12-15T18:25Z
TLE epoch observation values (Epoch: 2025-12-15T18:25:25.201Z)
Latitude
2.66412°
Longitude
-20.52251°
Altitude
35,768.886 km
Speed
3.076 km/s
True Right ascension
22h 41m 58s
True Declination
2° 39' 41"
Sunlit
Object was in daylight at epoch
Visualization orbit readout
Latitude
Unknown
Longitude
Unknown
Altitude
Unknown
Speed
Unknown
Apparent Right ascension
Unknown
Apparent Declination
Unknown
Sunlit
N/A
Visualization observer readout
Local Sidereal Time
15:39:29
Azimuth
Unknown
Elevation
Unknown
Doppler factor
Unknown
Orbital elements
Apogee altitude
35,805.393 km
Perigee altitude
35,767.825 km
Semi-major axis
42,164.746 km
Eccentricity
0.00045
Inclination
11.0166°
RAAN
326.7244°
Arg. of periapsis
342.4582°
True anomaly
31.59224°
Mean anomaly
31.5655°
Eccentric anomaly
31.57887°
Mean motion
0.25068 °/min
Orbital period
1,436.1 mins
BSTAR
0
Loading maneuver chart data...
Computing Atmospheric mass density...
Loading historical data...
Loading historical data...
Loading historical data...
Loading historical data...
Loading historical data...
Loading historical data...
Loading historical data...

Documentation

Showing up to 5 results
|